User: anonymous   Login
Location: Unspecified
(0.0000°N, 0.0000°E)
Time: 05:29:56
(UTC+02:00)
Language:

Cosmos 1782 Rocket - Orbit

View from above orbital plane
View from above orbital plane
View from above satellite
View from above satellite

Ground track
Ground track

The orbit data is extracted from the following two-line orbital elements,

1 16987U 86074B   17177.93146253 +.00000067 +00000-0 +53695-5 0  9998
2 16987 082.5170 301.2843 0017121 225.1283 274.5988 14.82964857638804
Epoch (UTC): 26 June 2017 22:21:18
Eccentricity: 0.0017121
inclination: 82.5170°
perigee height: 608 km
apogee height: 632 km
right ascension of ascending node: 301.2843°
argument of perigee: 225.1283°
revolutions per day: 14.82964857
mean anomaly at epoch: 274.5988°
orbit number at epoch: 63880

The dashed part of the orbit path shows where the satellite is in the earth's shadow,  

DLR